Weather History for Pinedale, WY

Change the Weather History Date:

Friday, March 1, 2013

  Actual Average (KBPI) Record (KBPI)
Temperature  
Mean Temperature 29 °F 20 °F  
Max Temperature 41 °F 34 °F 49 °F (1994)
Min Temperature 17 °F 6 °F -29 °F (1993)
Degree Days  
Heating Degree Days 36 45  
Month to date heating degree days 45  
Since 1 July heating degree days 7568  
Cooling Degree Days 0 0  
Month to date cooling degree days 0  
Year to date cooling degree days 0  
Moisture  
Dew Point 23 °F    
Average Humidity 76    
Maximum Humidity 86    
Minimum Humidity 53    
Precipitation  
Precipitation 0.00 in 0.01 in 0.13 in (1988)
Month to date precipitation 0.01  
Year to date precipitation 0.67  
Sea Level Pressure  
Sea Level Pressure 30.38 in    
Wind  
Wind Speed 13 mph (WNW)    
Max Wind Speed 28 mph    
Max Gust Speed 33 mph    
Visibility 10 miles    
Events      
T = Trace of Precipitation, MM = Missing Value Source: NWS Daily Summary

Daily Weather History Graph

Daily Weather History Graph

Search for Another Location

Airport:

Trip Planner

Search our weather history database for the weather conditions in past years. The results will help you decide how hot, cold, wet, or windy it might be!

Date:

Astronomy

Mar. 01, 2013 Rise Set
Actual Time 6:54 AM MST 6:09 PM MST
Civil Twilight 6:26 AM MST 6:37 PM MST
Nautical Twilight 5:53 AM MST 7:10 PM MST
Astronomical Twilight 5:20 AM MST 7:43 PM MST
Moon 10:54 PM MST (3/1) 8:36 AM MST (3/1)
Length of Visible Light 12h 11m
Length of Day
11h 14m
Waning Gibbous, 83% of the Moon is Illuminated
Mar 1
Waning Gibbous
Mar 4
Last Quarter
Mar 11
New
Mar 19
First Quarter
Mar 27
Full

Hourly Weather History & Observations

Time (MST) Temp. Windchill Dew Point Humidity Pressure Visibility Wind Dir Wind Speed Gust Speed Precip Events Conditions
12:15 AM 17.6 °F 12.3 °F 14.0 °F 86% 30.34 in 10.0 mi NW 3.5 mph - N/A   Clear
12:35 AM 17.6 °F 9.3 °F 14.0 °F 86% 30.35 in 10.0 mi WNW 5.8 mph - N/A   Mostly Cloudy
12:55 AM 19.4 °F - 14.0 °F 80% 30.35 in 10.0 mi Calm Calm - N/A   Overcast
1:15 AM 19.4 °F 10.4 °F 15.8 °F 86% 30.35 in 10.0 mi WNW 6.9 mph - N/A   Overcast
1:35 AM 21.2 °F 12.6 °F 15.8 °F 80% 30.35 in 10.0 mi WNW 6.9 mph - N/A   Overcast
1:55 AM 21.2 °F 13.6 °F 17.6 °F 86% 30.35 in 10.0 mi West 5.8 mph - N/A   Overcast
2:15 AM 21.2 °F 10.1 °F 17.6 °F 86% 30.35 in 10.0 mi WNW 10.4 mph - N/A   Overcast
2:35 AM 21.2 °F 11.7 °F 17.6 °F 86% 30.34 in 10.0 mi WNW 8.1 mph - N/A   Mostly Cloudy
2:55 AM 21.2 °F 13.6 °F 17.6 °F 86% 30.34 in 10.0 mi WNW 5.8 mph - N/A   Scattered Clouds
3:15 AM 21.2 °F 10.9 °F 17.6 °F 86% 30.34 in 10.0 mi WNW 9.2 mph - N/A   Scattered Clouds
3:35 AM 21.2 °F 11.7 °F 17.6 °F 86% 30.34 in 10.0 mi WNW 8.1 mph - N/A   Mostly Cloudy
3:55 AM 23.0 °F 13.1 °F 19.4 °F 86% 30.33 in 10.0 mi West 9.2 mph - N/A   Mostly Cloudy
4:15 AM 23.0 °F 11.7 °F 19.4 °F 86% 30.33 in 10.0 mi WNW 11.5 mph - N/A   Scattered Clouds
4:35 AM 23.0 °F 9.6 °F 19.4 °F 86% 30.33 in 10.0 mi WNW 16.1 mph - N/A   Clear
5:15 AM 24.8 °F 9.6 °F 19.4 °F 80% 30.33 in 10.0 mi WNW 23.0 mph - N/A   Scattered Clouds
5:35 AM 24.8 °F 10.3 °F 19.4 °F 80% 30.32 in 10.0 mi WNW 20.7 mph 25.3 mph N/A   Scattered Clouds
5:55 AM 26.6 °F 12.4 °F 19.4 °F 74% 30.32 in 10.0 mi WNW 21.9 mph - N/A   Clear
6:15 AM 26.6 °F 12.4 °F 21.2 °F 80% 30.33 in 10.0 mi WNW 21.9 mph 28.8 mph N/A   Scattered Clouds
6:35 AM 28.4 °F 13.5 °F 21.2 °F 74% 30.34 in 10.0 mi WNW 26.5 mph 33.4 mph N/A   Overcast
6:55 AM 28.4 °F 14.4 °F 21.2 °F 74% 30.34 in 10.0 mi WNW 23.0 mph 29.9 mph N/A   Overcast
7:15 AM 28.4 °F 15.1 °F 21.2 °F 74% 30.35 in 10.0 mi WNW 20.7 mph 25.3 mph N/A   Overcast
7:35 AM 28.4 °F 14.1 °F 23.0 °F 80% 30.35 in 10.0 mi WNW 24.2 mph - N/A   Overcast
8:15 AM 30.2 °F 18.5 °F 23.0 °F 75% 30.38 in 10.0 mi WNW 17.3 mph - N/A   Overcast
8:35 AM 32.0 °F 20.8 °F 24.8 °F 75% 30.39 in 10.0 mi WNW 17.3 mph 25.3 mph N/A   Overcast
8:55 AM 32.0 °F 20.8 °F 24.8 °F 75% 30.39 in 10.0 mi WNW 17.3 mph - N/A   Overcast
9:15 AM 33.8 °F 21.3 °F 24.8 °F 70% 30.40 in 10.0 mi WNW 24.2 mph 28.8 mph N/A   Overcast
9:35 AM 33.8 °F 22.2 °F 24.8 °F 70% 30.40 in 10.0 mi WNW 20.7 mph 27.6 mph N/A   Overcast
9:55 AM 33.8 °F 22.8 °F 26.6 °F 75% 30.39 in 10.0 mi WNW 18.4 mph - N/A   Overcast
10:15 AM 33.8 °F 22.2 °F 24.8 °F 70% 30.39 in 10.0 mi WNW 20.7 mph 27.6 mph N/A   Scattered Clouds
10:35 AM 35.6 °F 24.0 °F 24.8 °F 65% 30.39 in 10.0 mi WNW 23.0 mph 29.9 mph N/A   Scattered Clouds
10:55 AM 35.6 °F 24.5 °F 26.6 °F 70% 30.39 in 10.0 mi WNW 20.7 mph 26.5 mph N/A   Mostly Cloudy
11:15 AM 35.6 °F 25.5 °F 26.6 °F 70% 30.38 in 10.0 mi West 17.3 mph - N/A   Scattered Clouds
11:35 AM 35.6 °F 25.5 °F 26.6 °F 70% 30.38 in 10.0 mi West 17.3 mph 20.7 mph N/A   Scattered Clouds
11:55 AM 37.4 °F 27.2 °F 26.6 °F 65% 30.38 in 10.0 mi WNW 19.6 mph 25.3 mph N/A   Clear
12:15 PM 37.4 °F 27.5 °F 26.6 °F 65% 30.39 in 10.0 mi WNW 18.4 mph 24.2 mph N/A   Clear
12:35 PM 37.4 °F 27.5 °F 26.6 °F 65% 30.38 in 10.0 mi West 18.4 mph 27.6 mph N/A   Clear
12:55 PM 39.2 °F 29.8 °F 28.4 °F 65% 30.37 in 10.0 mi West 18.4 mph 27.6 mph N/A   Clear
1:15 PM 39.2 °F 29.3 °F 26.6 °F 61% 30.36 in 10.0 mi WNW 20.7 mph 27.6 mph N/A   Clear
1:35 PM 41.0 °F 31.4 °F 26.6 °F 57% 30.35 in 10.0 mi WNW 21.9 mph 28.8 mph N/A   Clear
2:15 PM 41.0 °F 30.2 °F 26.6 °F 57% 30.35 in 10.0 mi WNW 27.6 mph - N/A   Clear
2:35 PM 41.0 °F 30.9 °F 26.6 °F 57% 30.35 in 10.0 mi WNW 24.2 mph 29.9 mph N/A   Clear
2:55 PM 41.0 °F 31.6 °F 24.8 °F 53% 30.35 in 10.0 mi WNW 20.7 mph 28.8 mph N/A   Clear
3:15 PM 41.0 °F 31.4 °F 26.6 °F 57% 30.35 in 10.0 mi WNW 21.9 mph 27.6 mph N/A   Clear
3:35 PM 41.0 °F 30.9 °F 26.6 °F 57% 30.36 in 10.0 mi WNW 24.2 mph 29.9 mph N/A   Scattered Clouds
4:15 PM 37.4 °F 26.1 °F 26.6 °F 65% 30.37 in 10.0 mi WNW 24.2 mph 31.1 mph N/A   Clear
4:35 PM 37.4 °F 26.1 °F 26.6 °F 65% 30.37 in 10.0 mi WNW 24.2 mph 29.9 mph N/A   Clear
4:55 PM 35.6 °F 24.8 °F 26.6 °F 70% 30.39 in 10.0 mi WNW 19.6 mph 28.8 mph N/A   Clear
5:15 PM 35.6 °F 24.8 °F 26.6 °F 70% 30.39 in 10.0 mi WNW 19.6 mph 28.8 mph N/A   Clear
5:35 PM 33.8 °F 23.9 °F 26.6 °F 75% 30.40 in 10.0 mi WNW 15.0 mph 24.2 mph N/A   Clear
5:55 PM 33.8 °F 23.5 °F 26.6 °F 75% 30.39 in 10.0 mi WNW 16.1 mph 25.3 mph N/A   Clear
6:15 PM 32.0 °F 21.2 °F 26.6 °F 80% 30.40 in 10.0 mi WNW 16.1 mph 24.2 mph N/A   Clear
6:35 PM 32.0 °F 22.1 °F 26.6 °F 80% 30.41 in 10.0 mi West 13.8 mph 20.7 mph N/A   Clear
6:55 PM 32.0 °F 23.6 °F 26.6 °F 80% 30.42 in 10.0 mi West 10.4 mph - N/A   Clear
7:15 PM 30.2 °F 21.3 °F 26.6 °F 86% 30.42 in 10.0 mi West 10.4 mph - N/A   Clear
7:35 PM 30.2 °F 22.6 °F 24.8 °F 80% 30.42 in 10.0 mi West 8.1 mph - N/A   Clear
7:55 PM 30.2 °F 22.6 °F 24.8 °F 80% 30.43 in 10.0 mi WNW 8.1 mph - N/A   Clear
8:15 PM 30.2 °F 21.9 °F 24.8 °F 80% 30.43 in 10.0 mi West 9.2 mph - N/A   Clear
8:35 PM 30.2 °F 19.8 °F 24.8 °F 80% 30.42 in 10.0 mi WNW 13.8 mph - N/A   Clear
8:55 PM 30.2 °F 20.2 °F 24.8 °F 80% 30.43 in 10.0 mi WNW 12.7 mph - N/A   Clear
9:15 PM 28.4 °F 17.0 °F 24.8 °F 86% 30.43 in 10.0 mi WNW 15.0 mph - N/A   Clear
9:35 PM 28.4 °F 18.0 °F 24.8 °F 86% 30.43 in 10.0 mi WNW 12.7 mph - N/A   Clear
9:55 PM 28.4 °F 19.7 °F 24.8 °F 86% 30.43 in 10.0 mi WNW 9.2 mph - N/A   Clear
10:15 PM 28.4 °F 17.5 °F 23.0 °F 80% 30.43 in 10.0 mi WNW 13.8 mph - N/A   Scattered Clouds
10:35 PM 28.4 °F 17.5 °F 24.8 °F 86% 30.43 in 10.0 mi WNW 13.8 mph - N/A   Clear
10:55 PM 28.4 °F 18.0 °F 23.0 °F 80% 30.43 in 10.0 mi WNW 12.7 mph - N/A   Clear
11:15 PM 28.4 °F 18.5 °F 23.0 °F 80% 30.43 in 10.0 mi NW 11.5 mph - N/A   Clear
11:35 PM 28.4 °F 19.7 °F 23.0 °F 80% 30.43 in 10.0 mi NW 9.2 mph - N/A   Clear
11:55 PM 28.4 °F 18.5 °F 23.0 °F 80% 30.43 in 10.0 mi NW 11.5 mph - N/A   Clear